This demonstration page uses our WeatherBlox Daily Observations layout. Learn more.

Left ArrowRight Arrow

Hourly Observations for January 30, 2017

Temp ( °F °C ) Dew Point ( °F °C ) Humidity (%) Winds ( mph kmh ) Pressure ( in mb ) Visibility ( mi km ) Precip ( " mm )
12:59 am 00:59 Partly Cloudy 39 3.9 32 0 76 76 S 3 6 29.74 1007 10 16 0.00 0.03
1:59 am 01:59 Partly Cloudy 38 3.3 31 -0.6 76 76 SSW 3 6 29.73 1007 10 16 0.00 0.00
2:59 am 02:59 Cloudy 41 5 31 -0.6 67 67 W 8 13 29.75 1008 10 16 0.00 0.00
3:59 am 03:59 Mostly Cloudy 39 3.9 34 1.1 82 82 WNW 10 17 29.75 1008 10 16 0.00 0.03
4:59 am 04:59 Mostly Cloudy 39 3.9 31 -0.6 73 73 W 13 20 29.77 1008 10 16 0.00 0.00
5:59 am 05:59 Partly Cloudy 38 3.3 29 -1.7 70 70 W 20 31 29.79 1009 10 16 0.00 0.00
6:11 am 06:11 Mostly Cloudy 38 3.3 29 -1.7 70 70 W 18 30 29.80 1009 10 16 0.00 0.00
6:59 am 06:59 Cloudy 38 3.3 31 -0.6 76 76 NW 20 31 29.82 1010 10 16 0.00 0.00
7:24 am 07:24 Cloudy with Light Snow 37 2.8 29 -1.7 73 73 NW 18 30 29.83 1010 9 14 0.00 0.03
7:59 am 07:59 Mostly Cloudy 37 2.8 29 -1.7 73 73 NNW 17 28 29.86 1011 10 16 0.00 0.03
8:59 am 08:59 Mostly Cloudy 38 3.3 28 -2.2 68 68 WNW 17 28 29.90 1013 10 16 0.00 0.00
9:59 am 09:59 Mostly Cloudy 41 5 27 -2.8 57 57 WNW 17 28 29.92 1013 10 16 0.00 0.00
10:59 am 10:59 Mostly Cloudy 41 5 19 -7.2 41 41 WNW 18 30 29.93 1014 10 16 0.00 0.00
11:59 am 11:59 Mostly Cloudy 40 4.4 14 -10 35 35 WNW 22 35 29.93 1013 10 16 0.00 0.00
12:59 pm 12:59 Mostly Cloudy 42 5.6 14 -10 32 32 W 20 31 29.91 1013 10 16 0.00 0.00
1:59 pm 13:59 Mostly Cloudy 42 5.6 15 -9.4 33 33 WNW 18 30 29.90 1013 10 16 0.00 0.00
2:59 pm 14:59 Mostly Cloudy 41 5 12 -11.1 30 30 WNW 23 37 29.92 1013 10 16 0.00 0.00
3:59 pm 15:59 Mostly Cloudy 41 5 13 -10.6 32 32 WNW 20 31 29.94 1014 10 16 0.00 0.00
4:59 pm 16:59 Partly Cloudy 41 5 12 -11.1 30 30 WNW 13 20 29.97 1015 10 16 0.00 0.00
5:59 pm 17:59 Mostly Clear 39 3.9 12 -11.1 33 33 W 13 20 30.01 1016 10 16 0.00 0.00
6:59 pm 18:59 Clear 39 3.9 15 -9.4 38 38 W 10 17 30.05 1018 10 16 0.00 0.00
7:59 pm 19:59 Clear 38 3.3 15 -9.4 39 39 WNW 15 24 30.07 1018 10 16 0.00 0.00
8:59 pm 20:59 Clear 37 2.8 16 -8.9 42 42 WNW 10 17 30.08 1019 10 16 0.00 0.00
9:59 pm 21:59 Clear 36 2.2 17 -8.3 46 46 WNW 8 13 30.10 1019 10 16 0.00 0.00
10:59 pm 22:59 Clear 33 0.6 18 -7.8 54 54 SW 3 6 30.10 1019 10 16 0.00 0.00
11:59 pm 23:59 Clear 30 -1.1 19 -7.2 64 64 Calm 30.08 1019 10 16 0.00 0.00

Powered by AerisWeather